Weather History for PHHI - June, 2013

Change the Weather History Date:

Tuesday, June 11, 2013

  Actual Average Record
Temperature  
Mean Temperature 75 °F -  
Max Temperature 82 °F 79 °F 83 °F (2007)
Min Temperature 68 °F 66 °F 63 °F (2008)
Cooling Degree Days 10    
Growing Degree Days 25 (Base 50)    
Moisture  
Dew Point 65 °F    
Average Humidity 76    
Maximum Humidity 88    
Minimum Humidity 54    
Precipitation  
Precipitation 0.00 in - - ()
Sea Level Pressure  
Sea Level Pressure 30.00 in    
Wind  
Wind Speed 6 mph (ENE)    
Max Wind Speed 15 mph    
Max Gust Speed 20 mph    
Visibility 10 miles    
Events      
Averages and records for this station are not official NWS values.
T = Trace of Precipitation, MM = Missing Value Source: NWS Daily Summary

Daily Weather History Graph

Daily Weather History Graph

Search for Another Location

Airport or City:

Trip Planner

Search our weather history database for the weather conditions in past years. The results will help you decide how hot, cold, wet, or windy it might be!

Date:

Astronomy

Jun. 11, 2013 Rise Set
Actual Time 5:49 AM HST 7:14 PM HST
Civil Twilight 5:24 AM HST 7:39 PM HST
Nautical Twilight 4:54 AM HST 8:09 PM HST
Astronomical Twilight 4:24 AM HST 8:39 PM HST
Moon 8:28 AM HST (6/11) 9:42 PM HST (6/11)
Length of Visible Light 14h 15m
Length of Day
13h 25m
Waxing Crescent, 9% of the Moon is Illuminated
Jun 11
Waxing Crescent
Jun 16
First Quarter
Jun 23
Full
Jun 29
Last Quarter
Jul 7
New

Hourly Weather History & Observations

Time (HST) Temp. Heat Index Dew Point Humidity Pressure Visibility Wind Dir Wind Speed Gust Speed Precip Events Conditions
12:55 AM 69.8 °F - 64.4 °F 83% 30.01 in 10.0 mi WNW 5.8 mph - N/A   Partly Cloudy
1:55 AM 70.7 °F - 64.6 °F 81% 30.00 in 10.0 mi Calm Calm - N/A   Mostly Cloudy
2:55 AM 68.9 °F - 64.2 °F 85% 29.98 in 10.0 mi Variable 3.5 mph - N/A   Clear
3:55 AM 69.4 °F - 64.9 °F 86% 29.98 in 10.0 mi Calm Calm - N/A   Mostly Cloudy
4:55 AM 68.2 °F - 63.9 °F 86% 29.99 in 10.0 mi WNW 6.9 mph - N/A   Clear
5:55 AM 68.2 °F - 64.0 °F 87% 30.00 in 10.0 mi West 5.8 mph - N/A   Partly Cloudy
6:55 AM 69.4 °F - 64.4 °F 84% 30.01 in 10.0 mi WNW 5.8 mph - N/A   Clear
7:55 AM 73.6 °F - 64.6 °F 73% 30.01 in 10.0 mi Variable 3.5 mph - N/A   Scattered Clouds
8:55 AM 74.8 °F - 64.2 °F 69% 30.01 in 10.0 mi ENE 8.1 mph - N/A   Mostly Cloudy
9:55 AM 75.4 °F - 65.3 °F 71% 30.02 in 10.0 mi NE 10.4 mph - N/A   Mostly Cloudy
10:55 AM 77.5 °F - 65.8 °F 67% 30.01 in 10.0 mi East 12.7 mph 19.6 mph N/A   Mostly Cloudy
11:55 AM 79.7 °F - 64.4 °F 59% 29.99 in 10.0 mi ENE 15.0 mph - N/A   Partly Cloudy
12:55 PM 79.7 °F - 64.9 °F 61% 29.98 in 10.0 mi ENE 10.4 mph - N/A   Overcast
1:55 PM 81.9 °F 83.5 °F 64.8 °F 56% 29.97 in 10.0 mi ENE 13.8 mph 18.4 mph N/A   Clear
2:55 PM 82.0 °F 83.4 °F 63.9 °F 54% 29.96 in 10.0 mi East 15.0 mph - N/A   Partly Cloudy
3:55 PM 79.9 °F - 65.1 °F 61% 29.96 in 10.0 mi ENE 13.8 mph - N/A   Clear
4:55 PM 79.3 °F - 64.6 °F 60% 29.96 in 10.0 mi ENE 15.0 mph - N/A   Partly Cloudy
5:55 PM 77.2 °F - 63.7 °F 63% 29.97 in 10.0 mi East 13.8 mph - N/A   Mostly Cloudy
6:55 PM 75.6 °F - 65.5 °F 71% 29.99 in 10.0 mi East 8.1 mph - N/A   Mostly Cloudy
7:55 PM 74.1 °F - 64.8 °F 72% 30.00 in 10.0 mi ENE 5.8 mph - N/A   Mostly Cloudy
8:55 PM 73.8 °F - 65.1 °F 74% 30.01 in 10.0 mi ENE 3.5 mph - N/A   Scattered Clouds
9:55 PM 73.2 °F - 65.8 °F 78% 30.02 in 10.0 mi East 5.8 mph - N/A   Partly Cloudy
10:55 PM 71.6 °F - 65.7 °F 81% 30.03 in 10.0 mi Variable 3.5 mph - N/A   Scattered Clouds
11:32 PM 71.6 °F - 66.2 °F 83% 30.03 in 10.0 mi SE 3.5 mph - N/A   Light Drizzle
11:33 PM 71.6 °F - 66.2 °F 83% 30.03 in 9.0 mi SE 3.5 mph - N/A   Light Drizzle
11:41 PM 71.6 °F - 66.2 °F 83% 30.03 in 8.0 mi South 3.5 mph - N/A   Light Drizzle
11:45 PM 71.6 °F - 66.2 °F 83% 30.03 in 10.0 mi Calm Calm - N/A   Mostly Cloudy
11:48 PM 71.6 °F - 66.2 °F 83% 30.03 in 10.0 mi Calm Calm - N/A   Overcast
11:50 PM 71.6 °F - 66.2 °F 83% 30.03 in 10.0 mi Calm Calm - N/A   Light Drizzle
11:53 PM 71.6 °F - 66.2 °F 83% 30.03 in 10.0 mi Calm Calm - N/A   Light Drizzle
11:55 PM 71.8 °F - 66.9 °F 85% 30.03 in 10.0 mi Calm Calm - 0.00 in   Light Drizzle
11:58 PM 71.6 °F - 68.0 °F 88% 30.03 in 10.0 mi Calm Calm - N/A   Light Drizzle
11:59 PM 71.6 °F - 68.0 °F 88% 30.02 in 10.0 mi Calm Calm - N/A   Overcast